To NAV CANADA Home Page Login to a new session Search on AWWS site Disclaimer Vers la page française équivalente Tips FAQ What's new on the site To the Forecasts and Observations / NOTAM section To "File a Flight Plan" website Publications and other links Update of the User's profile FIC Telephone Numbers My Weather Data Folder Route Weather Data Regional Weather Data Local Weather Data To the Forecasts and Observations / NOTAM section
Request Generated 09/19/2020 at 03:35:25 UTC . Weather information available at that time is displayed.

METAR/TAF

TORONTO/BUTTONVILLE MUNICIPAL/ON    

LWIS CYKZ 190300Z AUTO 33006KT 06/01 A3034=
LWIS CYKZ 190200Z AUTO 33007KT 07/00 A3033=
LWIS CYKZ 190100Z AUTO 33007KT 08/00 A3032=

CYKZ - No TAF is issued for this station

Your time UTC time
Weather data provided by Environment Canada and NAV CANADA